Weather History for Mobridge, SD

Change the Weather History Date:

Tuesday, January 1, 2002

  Actual Average Record
Temperature  
Mean Temperature 6 °F 16 °F  
Max Temperature 12 °F 26 °F 53 °F (1964)
Min Temperature 1 °F 6 °F -30 °F (1928)
Degree Days  
Heating Degree Days 58 49  
Month to date heating degree days 49  
Since 1 July heating degree days 3265  
Cooling Degree Days 0 0  
Month to date cooling degree days 0  
Year to date cooling degree days 0  
Moisture  
Dew Point 1 °F    
Average Humidity 76    
Maximum Humidity 85    
Minimum Humidity 67    
Precipitation  
Precipitation 0.00 in 0.01 in 0.37 in (1941)
Month to date precipitation 0.01  
Year to date precipitation 0.01  
Snow  
Snow 0.00 in - - ()
Month to date snowfall  
Since 1 July snowfall  
Snow Depth -    
Sea Level Pressure  
Sea Level Pressure 30.53 in    
Wind  
Wind Speed 11 mph (NNW)    
Max Wind Speed 14 mph    
Max Gust Speed -    
Visibility 7 miles    
Events Snow    
T = Trace of Precipitation, MM = Missing Value Source: NWS Daily Summary

Daily Weather History Graph

Daily Weather History Graph

Search for Another Location

Airport:

Trip Planner

Search our weather history database for the weather conditions in past years. The results will help you decide how hot, cold, wet, or windy it might be!

Date:

Astronomy

Jan. 01, 2002 Rise Set
Actual Time 8:21 AM CST 5:08 PM CST
Civil Twilight 7:47 AM CST 5:42 PM CST
Nautical Twilight 7:10 AM CST 6:20 PM CST
Astronomical Twilight 6:34 AM CST 6:56 PM CST
Moon 7:53 PM CST (1/1) 10:26 AM CST (1/1)
Length of Visible Light 9h 54m
Length of Day
8h 46m
Waning Gibbous, 93% of the Moon is Illuminated
Jan 1
Waning Gibbous
Jan 5
Last Quarter
Jan 13
New
Jan 21
First Quarter
Jan 28
Full

Hourly Weather History & Observations

Time (CST) Temp. Windchill Dew Point Humidity Pressure Visibility Wind Dir Wind Speed Gust Speed Precip Events Conditions
12:11 AM 1.4 °F -16.9 °F -2.2 °F 85% 30.33 in 8.0 mi NNW 13.8 mph - N/A   Overcast
12:48 AM 1.4 °F -16.1 °F -4.0 °F 78% 30.33 in 8.0 mi NW 12.7 mph - 0.00 in   Overcast
12:55 AM 1.9 °F -15.5 °F -4.0 °F 76% 30.47 in 9.0 mi NW 12.7 mph - 0.00 in   Overcast
1:10 AM 1.4 °F -16.9 °F -4.0 °F 78% 30.34 in 9.0 mi NW 13.8 mph - N/A   Overcast
1:17 AM 1.4 °F -16.9 °F -5.8 °F 72% 30.35 in 6.0 mi NW 13.8 mph - N/A   Haze
1:55 AM 1.0 °F -17.3 °F -5.1 °F 75% 30.48 in 6.0 mi NW 13.8 mph - N/A   Haze
2:55 AM 1.9 °F -14.7 °F -2.9 °F 80% 30.51 in 5.0 mi NNW 11.5 mph - N/A   Haze
3:13 AM 1.4 °F -16.1 °F -4.0 °F 78% 30.37 in 6.0 mi NNW 12.7 mph - N/A   Haze
3:33 AM 1.4 °F -14.5 °F -2.2 °F 85% 30.37 in 6.0 mi NNW 10.4 mph - N/A   Haze
3:55 AM 1.9 °F -15.5 °F -4.0 °F 76% 30.50 in 9.0 mi NNW 12.7 mph - N/A   Overcast
4:55 AM 3.0 °F -11.5 °F -2.9 °F 76% 30.51 in 10.0 mi NW 9.2 mph - N/A   Overcast
5:55 AM 3.9 °F -12.2 °F -2.0 °F 76% 30.52 in 10.0 mi NNW 11.5 mph - N/A   Overcast
6:55 AM 3.9 °F -12.2 °F -2.0 °F 76% 30.54 in 10.0 mi NNW 11.5 mph - N/A   Overcast
7:55 AM 3.9 °F -13.0 °F -0.9 °F 80% 30.56 in 10.0 mi NNW 12.7 mph - N/A   Overcast
8:55 AM 6.1 °F -8.7 °F -0.0 °F 76% 30.59 in 10.0 mi NNW 10.4 mph - N/A   Overcast
9:22 AM 6.8 °F -7.8 °F -0.4 °F 72% 30.47 in 2.0 mi NNW 10.4 mph - 0.00 in Snow Light Snow
9:45 AM 6.8 °F -7.8 °F 1.4 °F 79% 30.48 in 4.0 mi North 10.4 mph - 0.00 in Snow Light Snow
9:55 AM 7.0 °F -5.7 °F 1.0 °F 77% 30.61 in 4.0 mi North 8.1 mph - 0.00 in   Haze
10:55 AM 8.1 °F -7.0 °F 1.0 °F 73% 30.62 in 3.0 mi North 11.5 mph - 0.00 in Snow Light Snow
11:43 AM 8.6 °F -7.7 °F 1.4 °F 73% 30.48 in 5.0 mi NNW 13.8 mph - 0.00 in   Haze
11:55 AM 9.0 °F -7.3 °F 1.9 °F 73% 30.61 in 4.0 mi NNW 13.8 mph - 0.00 in Snow Light Snow
12:55 PM 10.0 °F -4.5 °F 3.0 °F 73% 30.60 in 10.0 mi North 11.5 mph - 0.00 in   Overcast
1:55 PM 12.0 °F -2.7 °F 3.9 °F 70% 30.60 in 8.0 mi North 12.7 mph - N/A   Overcast
2:18 PM 12.2 °F -1.0 °F 3.2 °F 67% 30.48 in 10.0 mi North 10.4 mph - 0.00 in   Overcast
2:55 PM 12.0 °F -1.3 °F 5.0 °F 73% 30.61 in 8.0 mi North 10.4 mph - 0.00 in   Overcast
3:55 PM 12.0 °F -0.4 °F 5.0 °F 73% 30.63 in 9.0 mi North 9.2 mph - 0.00 in   Overcast
4:55 PM 12.0 °F -0.4 °F 6.1 °F 77% 30.63 in 3.0 mi NNW 9.2 mph - 0.00 in Snow Light Snow
5:05 PM 12.2 °F 1.7 °F 6.8 °F 79% 30.51 in 2.5 mi North 6.9 mph - 0.00 in Snow Light Snow
5:21 PM 12.2 °F 2.9 °F 6.8 °F 79% 30.51 in 3.0 mi North 5.8 mph - 0.00 in Snow Light Snow
5:55 PM 12.0 °F 4.1 °F 7.0 °F 80% 30.64 in 5.0 mi North 4.6 mph - 0.00 in Snow Light Snow
6:55 PM 10.9 °F - 6.1 °F 81% 30.65 in 10.0 mi Calm Calm - 0.00 in   Overcast
7:55 PM 12.0 °F - 6.1 °F 77% 30.65 in 5.0 mi Calm Calm - 0.00 in Snow Light Snow
8:55 PM 10.9 °F - 6.1 °F 81% 30.65 in 7.0 mi Calm Calm - 0.00 in Snow Light Snow
9:55 PM 10.9 °F 4.7 °F 3.9 °F 73% 30.64 in 9.0 mi NNW 3.5 mph - 0.00 in   Overcast
10:55 PM 10.9 °F 4.7 °F 3.9 °F 73% 30.64 in 9.0 mi NNE 3.5 mph - N/A   Overcast
11:55 PM 9.0 °F - 3.9 °F 80% 30.63 in 8.0 mi Calm Calm - 0.00 in   Overcast